Location: Bosmont
(49.7318°N, 3.8587°E)
Time: 09:18:34
(UTC+00:00)

Cosmos 2058 - Pass Details

Date: 08 February 2023
Orbit: 555 x 577 km, 82.5° (Epoch: 24 March)

Event Time Altitude Azimuth Distance (km) Brightness Sun altitude
Rises 18:01:08 0° 148° (SSE) 2,789 6.2 -11.7°
Reaches altitude 10° 18:03:50 10° 129° (SE) 1,893 5.2 -12.1°
Enters shadow 18:05:55 17° 100° (E) 1,474 4.4 -12.5°
